Showing default

HJS-4C, 58693

Orbit data source: Space-Track

HJS-4C, 58693 is a payload satellite owned by Zhongguo Xingwang (CN) in LEO that was launched on Sat, 30 Dec 2023 UTC via a CHANG ZHENG 2C/YZ-1S launch vehicle from the Jiuquan Satellite Launch Center, China (JSC). Payload-class satellites include a variety of spacecraft equipped with specific instruments for various scientific and technological missions. These include communications satellites like Starlink; space stations such as the ISS; scientific satellites like the Hubble; Earth observation satellites from companies like Planet Labs, Umbra, and HawkEye 360; GPS; miniature CubeSats for education and research; and military/defense satellites.

Loading next visibility...
Identifier
58693, 2023-212C
Orbit
LEO
Country
Flag of CNCN / PRC
Related business
Manufacturer
CAST
Mission
Operational Civil Communications
Bus & Motor
Unknown
Mass
~300 kg wet, ~300 kg dry
Launch date (UTC)
2023-12-30 (2 years ago)
Launch vehicle
CHANG ZHENG 2C/YZ-1S
Launch site
Jiuquan Satellite Launch Center, China (JSC)
Object type
Payload
Rocket body
Debris
Shape & HBR
Box + 2 Pan, 1.3 m
Radar Cross Section
2.320 m², Large (>1 m²)

Expand to show TLE details & history
Last TLE update: 2 days ago

TLE from 2 days ago
0 HJS-4C
1 58693U 23212C   26171.42684852 -.00000104  00000-0  42815-4 0  9997
2 58693  50.0001 332.3582 0001332 108.2780 251.8242 13.41460508121695
Epoch: 2026-06-20T10:14Z
TLE epoch observation values (Epoch: 2026-06-20T10:14:39.712Z)
Latitude
-0.00003°
Longitude
-89.94893°
Altitude
1,104.664 km
Speed
7.301 km/s
True Right ascension
22h 09m 25s
True Declination
0° 00' 00"
Sunlit
Object was in daylight at epoch
Visualization orbit readout
Latitude
Unknown
Longitude
Unknown
Altitude
Unknown
Speed
Unknown
Apparent Right ascension
Unknown
Apparent Declination
Unknown
Sunlit
N/A
Visualization observer readout
Local Sidereal Time
21:25:13
Azimuth
Unknown
Elevation
Unknown
Doppler factor
Unknown
Orbital elements
Apogee altitude
1,105.55 km
Perigee altitude
1,103.557 km
Semi-major axis
7,482.69 km
Eccentricity
0.00013
Inclination
50.0001°
RAAN
332.3582°
Arg. of periapsis
108.278°
True anomaly
251.8097°
Mean anomaly
251.8242°
Eccentric anomaly
251.81695°
Mean motion
3.35318 °/min
Orbital period
107.36 mins
BSTAR
0.000042815
Loading maneuver chart data...
Computing Atmospheric mass density...
Loading historical data...
Loading historical data...
Loading historical data...
Loading historical data...
Loading historical data...
Loading historical data...
Loading historical data...
Other satellites on launch #212 in the year 2023 (2023-12-30 UTC)

Documentation

Showing up to 5 results
|